M I D A S
Marine Information and Data Acquisition System
Tripno 2114 of the Zeeleeuw from 2011-06-01 08:00:57 to 2011-06-01 09:49:34
Back to CruiseResearch ActivitiesStationsMapUnderway DataData graphs

EquipmentUnitsComment
TimeDGPSUTC
LatitudeDGPSDM.mWGS84
LongitudeDGPSDM.mWGS84
TemperatureSBE03/SBE38deg celciusITS90
ConductivitySBE21S/mITS90
SalinitySBE21 Practical Salinity Units
ChlorophylAChelsea fluorimeterg/lCalibrated in Aceton
Missing or incorrect values are displayed as -999
Sea surface data collected by the RV Zeeleeuw from 2011-06-01 07:30:13 to 2011-06-01 09:49:34
Time Latitude Longitude Temperature Conductivity Salinity ChlorophylA
2011-06-01 07:31:18 51°13.646 2°55.962 18.6734 0.061012 0.351344 -3.020363
2011-06-01 07:32:18 51°13.668 2°55.863 18.6938 0.061012 0.351357 -3.020363
2011-06-01 07:33:19 51°13.692 2°55.768 18.7002 0.061012 0.351377 -3.020363
2011-06-01 07:34:17 51°13.703 2°55.726 18.768 0.061012 0.351384 -3.020363
2011-06-01 07:35:15 51°13.702 2°55.738 18.7191 0.061012 0.351397 -3.020363
2011-06-01 07:36:15 51°13.723 2°55.754 18.7124 0.061012 0.351424 -3.020363
2011-06-01 07:37:18 51°13.708 2°55.761 18.7363 0.061012 0.351417 -3.020363
2011-06-01 07:38:18 51°13.758 2°55.714 18.7065 0.061012 0.351417 -3.020363
2011-06-01 07:39:16 51°13.826 2°55.636 18.6775 0.061012 0.351437 -3.020363
2011-06-01 07:40:14 51°13.906 2°55.577 18.7306 0.061012 0.351451 -3.020363
2011-06-01 07:41:14 51°13.992 2°55.521 18.747 0.061012 0.351464 -3.020363
2011-06-01 07:42:14 51°14.079 2°55.458 18.7626 0.061012 0.351464 -3.020363
2011-06-01 07:43:16 51°14.184 2°55.374 18.7868 0.061012 0.351477 -3.020363
2011-06-01 07:44:16 51°14.31 2°55.246 18.7051 0.061012 0.351484 -3.020363
2011-06-01 07:45:15 51°14.454 2°55.098 18.7286 0.061012 0.351491 -3.020363
2011-06-01 07:46:14 51°14.594 2°54.907 18.7376 0.061012 0.351491 -3.020363
2011-06-01 07:47:14 51°14.752 2°54.701 18.7205 0.061012 0.351517 -3.020363
2011-06-01 07:48:14 51°14.933 2°54.525 18.7398 0.061012 0.351524 -3.020363
2011-06-01 07:49:14 51°15.063 2°54.265 18.7365 0.061012 0.351531 -3.020363
2011-06-01 07:50:14 51°15.106 2°53.938 18.7219 0.061012 0.351571 -3.020363
2011-06-01 07:51:14 51°15.039 2°53.594 18.7363 0.061012 0.351557 -3.020363
2011-06-01 07:52:14 51°14.927 2°53.277 18.6341 0.061012 0.351557 -3.020363
2011-06-01 07:53:14 51°14.86 2°52.932 18.7294 0.061012 0.351597 -3.020363
2011-06-01 07:54:14 51°14.797 2°52.586 18.7213 0.061012 0.351604 -3.020363
2011-06-01 07:55:14 51°14.709 2°52.252 18.7509 0.061012 0.351611 -3.020363
2011-06-01 07:56:14 51°14.621 2°52.005 18.7918 0.061012 0.351638 -3.020363
2011-06-01 07:57:15 51°14.547 2°51.876 18.8005 0.061012 0.351644 -3.020363
2011-06-01 07:58:15 51°14.494 2°51.749 18.8278 0.061012 0.351658 -3.020363
2011-06-01 07:59:15 51°14.447 2°51.619 18.8137 0.061012 0.351678 -3.020363
2011-06-01 08:00:15 51°14.407 2°51.489 18.8298 0.061012 0.351684 -3.020363
2011-06-01 08:01:15 51°14.381 2°51.36 18.8307 0.061012 0.351698 -3.020363
2011-06-01 08:02:15 51°14.354 2°51.24 18.8319 0.061012 0.351711 -3.020363
2011-06-01 08:03:15 51°14.325 2°51.134 18.852 0.061012 0.351718 -3.020363
2011-06-01 08:04:15 51°14.288 2°51.036 18.8676 0.061012 0.351738 -3.020363
2011-06-01 08:05:15 51°14.249 2°50.944 18.8859 0.061012 0.351744 -3.020363
2011-06-01 08:06:15 51°14.212 2°50.849 18.8834 0.061012 0.351758 -3.020363
2011-06-01 08:07:15 51°14.184 2°50.751 18.8998 0.061012 0.351771 -3.020363
2011-06-01 08:08:15 51°14.16 2°50.651 18.8997 0.061012 0.351785 -3.020363
2011-06-01 08:09:15 51°14.136 2°50.553 18.9161 0.061012 0.351791 -3.020363
2011-06-01 08:10:15 51°14.111 2°50.454 18.9353 0.061012 0.351798 -3.020363
2011-06-01 08:11:15 51°14.084 2°50.356 18.9337 0.061012 0.351811 -3.020363
2011-06-01 08:12:15 51°14.054 2°50.259 18.9447 0.061012 0.351825 -3.020363
2011-06-01 08:13:14 51°14.023 2°50.166 18.959 0.061012 0.351831 -3.020363
2011-06-01 08:14:15 51°13.991 2°50.071 18.975 0.061012 0.351845 -3.020363
2011-06-01 08:15:15 51°13.96 2°49.976 18.977 0.061012 0.351858 -3.020363
2011-06-01 08:16:15 51°13.93 2°49.88 18.9945 0.061012 0.351865 -3.020363
2011-06-01 08:17:15 51°13.901 2°49.782 19.0047 0.061012 0.351878 -3.020363
2011-06-01 08:18:15 51°13.873 2°49.683 18.8937 0.061012 0.351892 -3.020363
2011-06-01 08:19:15 51°13.843 2°49.586 18.933 0.061012 0.351898 -3.020363
2011-06-01 08:20:15 51°13.811 2°49.491 18.9545 0.061012 0.351912 -3.020363
2011-06-01 08:21:14 51°13.779 2°49.397 18.97 0.060909 0.351306 -3.020363
2011-06-01 08:22:15 51°13.746 2°49.299 18.9984 0.061012 0.351925 -3.020363
2011-06-01 08:23:14 51°13.718 2°49.203 19.0091 0.060909 0.35132 -3.020363
2011-06-01 08:24:14 51°13.699 2°49.104 19.1935 0.061012 0.351952 -3.020363
2011-06-01 08:25:14 51°13.689 2°49.005 19.1688 0.060909 0.351346 -3.020363
2011-06-01 08:26:14 51°13.679 2°48.905 19.1633 0.061012 0.351958 -3.020363
2011-06-01 08:27:14 51°13.667 2°48.804 19.1766 0.060909 0.35136 -3.020363
2011-06-01 08:28:14 51°13.656 2°48.704 19.1822 0.060909 0.351366 -3.020363
2011-06-01 08:29:15 51°13.643 2°48.6 19.1941 0.060909 0.35138 -3.020363
2011-06-01 08:30:15 51°13.623 2°48.5 19.2077 0.061012 0.351999 -3.020363
2011-06-01 08:31:15 51°13.596 2°48.401 19.2068 0.060909 0.351393 -3.020363
2011-06-01 08:32:15 51°13.57 2°48.302 19.2113 0.060909 0.3514 -3.020363
2011-06-01 08:33:15 51°13.554 2°48.201 19.2295 0.060909 0.351413 -3.020363
2011-06-01 08:34:14 51°13.55 2°48.105 19.2422 0.060909 0.35142 -3.020363
2011-06-01 08:35:14 51°13.55 2°48.007 19.2499 0.060909 0.351426 -3.020363
2011-06-01 08:36:14 51°13.559 2°47.913 19.2569 0.060909 0.35144 -3.020363
2011-06-01 08:37:14 51°13.57 2°47.839 19.2697 0.060909 0.351447 -3.020363
2011-06-01 08:38:15 51°13.576 2°47.783 19.2754 0.060909 0.351453 -3.020363
2011-06-01 08:39:14 51°13.595 2°47.719 19.2814 0.060909 0.35146 -3.020363
2011-06-01 08:40:14 51°13.658 2°47.636 19.2991 0.060909 0.351473 -3.020363
2011-06-01 08:41:14 51°13.738 2°47.575 19.3045 0.060909 0.351473 -3.020363
2011-06-01 08:42:14 51°13.809 2°47.507 19.311 0.060909 0.351487 -3.020363
2011-06-01 08:43:14 51°13.864 2°47.451 19.3147 0.060909 0.351487 -3.020363
2011-06-01 08:44:15 51°13.921 2°47.454 19.3094 0.060909 0.3515 -3.020363
2011-06-01 08:45:14 51°13.961 2°47.522 19.3324 0.060909 0.351507 -3.020363
2011-06-01 08:46:15 51°13.991 2°47.616 19.3392 0.060909 0.351513 -3.020363
2011-06-01 08:47:15 51°14.011 2°47.719 19.3587 0.060909 0.35152 -3.020363
2011-06-01 08:48:14 51°14.014 2°47.827 19.354 0.060909 0.351527 -3.020363
2011-06-01 08:49:14 51°13.996 2°47.94 19.3742 0.060909 0.351533 -3.020363
2011-06-01 08:50:14 51°13.966 2°48.05 19.3832 0.060909 0.35154 -3.020363
2011-06-01 08:51:14 51°13.938 2°48.16 19.3899 0.060909 0.351547 -3.020363
2011-06-01 08:52:14 51°13.912 2°48.263 19.4055 0.060909 0.35156 -3.020363
2011-06-01 08:53:14 51°13.89 2°48.357 19.4124 0.060909 0.351567 -3.020363
2011-06-01 08:54:15 51°13.869 2°48.449 19.4224 0.060909 0.351574 -3.020363
2011-06-01 08:55:15 51°13.849 2°48.54 19.4463 0.060909 0.35158 -3.020363
2011-06-01 08:56:15 51°13.828 2°48.628 19.4611 0.060909 0.351594 -3.020363
2011-06-01 08:57:15 51°13.821 2°48.714 19.4602 0.060909 0.3516 -3.020363
2011-06-01 08:58:15 51°13.829 2°48.795 19.4642 0.060909 0.351614 -3.020363
2011-06-01 08:59:15 51°13.848 2°48.871 19.4787 0.060909 0.351614 -3.020363
2011-06-01 09:00:15 51°13.874 2°48.943 19.4792 0.060909 0.351627 -3.020363
2011-06-01 09:01:15 51°13.902 2°49.015 19.4913 0.060909 0.351634 -3.020363
2011-06-01 09:02:15 51°13.928 2°49.091 19.5112 0.060909 0.35164 -3.020363
2011-06-01 09:03:14 51°13.954 2°49.166 19.5187 0.060909 0.351647 -3.020363
2011-06-01 09:04:15 51°13.982 2°49.242 19.5288 0.060909 0.351654 -3.020363
2011-06-01 09:05:14 51°14.01 2°49.314 19.5351 0.060909 0.351654 -3.020363
2011-06-01 09:06:14 51°14.04 2°49.386 19.5496 0.060909 0.351661 -3.020363
2011-06-01 09:07:15 51°14.072 2°49.458 19.5515 0.060909 0.351667 -3.020363
2011-06-01 09:08:14 51°14.103 2°49.528 19.5603 0.060909 0.351674 -3.020363
2011-06-01 09:09:15 51°14.129 2°49.607 19.5795 0.060909 0.351674 -3.020363
2011-06-01 09:10:15 51°14.134 2°49.692 19.5837 0.060909 0.351681 -3.020363
2011-06-01 09:11:15 51°14.106 2°49.781 19.5916 0.060909 0.351687 -3.020363
2011-06-01 09:12:15 51°14.059 2°49.834 19.6001 0.060909 0.351694 -3.020363
2011-06-01 09:13:15 51°14.013 2°49.843 19.6158 0.060909 0.351694 -3.020363
2011-06-01 09:14:15 51°13.978 2°49.839 19.6183 0.060909 0.351707 -3.020363
2011-06-01 09:15:14 51°13.946 2°49.838 19.643 0.060909 0.351707 -3.020363
2011-06-01 09:16:15 51°13.917 2°49.835 19.6529 0.060909 0.351714 -3.020363
2011-06-01 09:17:14 51°13.896 2°49.827 19.6478 0.060909 0.351714 -3.020363
2011-06-01 09:18:14 51°13.858 2°49.815 19.6367 0.060909 0.351728 -3.020363
2011-06-01 09:19:14 51°13.828 2°49.747 19.6357 0.060909 0.351728 -3.020363
2011-06-01 09:20:15 51°13.862 2°49.661 19.6739 0.060909 0.351741 -3.020363
2011-06-01 09:21:14 51°13.932 2°49.731 19.6922 0.060909 0.351714 -3.020363
2011-06-01 09:22:13 51°14.009 2°49.958 19.704 0.060909 0.351714 -3.020363
2011-06-01 09:23:14 51°14.088 2°50.228 19.7237 0.060909 0.351714 -3.020363
2011-06-01 09:24:13 51°14.173 2°50.508 19.7415 0.060909 0.351707 -3.020363
2011-06-01 09:25:14 51°14.257 2°50.781 19.7818 0.060909 0.351714 -3.020363
2011-06-01 09:26:13 51°14.334 2°51.011 19.7827 0.060909 0.351707 -3.020363
2011-06-01 09:27:13 51°14.413 2°51.311 19.8047 0.060909 0.351707 -3.020363
2011-06-01 09:28:13 51°14.501 2°51.61 19.828 0.060909 0.351714 -3.020363
2011-06-01 09:29:14 51°14.585 2°51.92 19.8457 0.060909 0.351707 -3.020363
2011-06-01 09:30:14 51°14.634 2°52.243 19.8793 0.060909 0.351721 -3.020363
2011-06-01 09:31:14 51°14.694 2°52.562 19.8966 0.060909 0.351714 -3.020363
2011-06-01 09:32:14 51°14.746 2°52.885 19.9211 0.060909 0.351721 -3.020363
2011-06-01 09:33:14 51°14.807 2°53.207 19.9417 0.060909 0.351721 -3.020363
2011-06-01 09:34:14 51°14.843 2°53.535 19.9689 0.060909 0.351721 -3.020363
2011-06-01 09:35:13 51°14.831 2°53.864 19.9987 0.060909 0.351714 -3.020363
2011-06-01 09:36:14 51°14.776 2°54.195 20.0175 0.060909 0.351721 -3.020363
2011-06-01 09:37:14 51°14.698 2°54.513 20.0383 0.060909 0.351728 -3.020363
2011-06-01 09:38:13 51°14.596 2°54.808 20.0628 0.060909 0.351721 -3.020363
2011-06-01 09:39:14 51°14.445 2°55.056 20.0979 0.060909 0.351728 -3.020363
2011-06-01 09:40:15 51°14.275 2°55.265 20.1238 0.060909 0.351728 -3.020363
2011-06-01 09:41:15 51°14.15 2°55.387 20.1556 0.060909 0.351728 -3.020363
2011-06-01 09:42:15 51°14.06 2°55.452 20.2007 0.060909 0.351734 -3.020363
2011-06-01 09:43:17 51°13.964 2°55.523 19.7569 0.060909 0.351728 -3.020363
2011-06-01 09:44:15 51°13.867 2°55.592 19.8185 0.060909 0.351728 -3.020363
2011-06-01 09:45:13 51°13.78 2°55.67 19.9001 0.060909 0.351728 -3.020363
2011-06-01 09:46:14 51°13.717 2°55.763 19.9651 0.060909 0.351721 -3.020363
2011-06-01 09:47:14 51°13.675 2°55.859 19.9894 0.060909 0.351714 -3.020363
2011-06-01 09:48:14 51°13.65 2°55.949 20.0113 0.060909 0.351714 -3.020363
2011-06-01 09:49:13 51°13.638 2°56.007 20.0429 0.060909 0.351714 -3.020363